Regional Weather Roundup
Issued by NWS

Home | Current Version | Previous Version | Graphics & Text | Print | Product List | Glossary On
Versions: 1 2 3 4 5 6 7 8 9 10 11 12 13 14 15 16 17 18 19 20 21 22 23 24 25 26 27 28 29 30 31 32 33 34 35 36 37 38 39 40 41 42 43 44 45 46 47 48 49 50
000
ASUS43 KFSD 030110
RWRSD

WEATHER ROUNDUP FOR SOUTH DAKOTA
NATIONAL WEATHER SERVICE SIOUX FALLS SD
700 PM CST MON MAR 02 2015

NOTE: "FAIR" INDICATES FEW OR NO CLOUDS BELOW 12,000 FEET WITH NO
SIGNIFICANT WEATHER AND/OR OBSTRUCTIONS TO VISIBILITY.


SDZ001>005-009-010-012>017-030200-
NORTHWEST AND NORTH CENTRAL SOUTH DAKOTA

CITY           SKY/WX    TMP DP  RH WIND       PRES   REMARKS
BUFFALO          N/A     37  16  42 NW13      29.65S
FAITH            N/A     41  15  35 N6        29.70S
MOBRIDGE       MOCLDY    37  22  54 SE9       29.71F
$$

SDZ012>016-024>037-041>051-057-063-072>074-030200-
SOUTHWEST AND SOUTH CENTRAL SOUTH DAKOTA

CITY           SKY/WX    TMP DP  RH WIND       PRES   REMARKS
RAPID CTY ARPT CLOUDY    39  23  52 N9        29.67F
PIERRE         CLOUDY    39  13  34 SE12      29.77F
CUSTER         CLOUDY    34  21  59 E7        29.63F WCI  28
ELLSWORTH AFB  CLOUDY    40  22  50 N13       29.66F
PHILIP         MOCLDY    38  16  40 NE7       29.71F
PINE RIDGE     CLOUDY    36  22  56 S12G21    29.68F
SPEARFISH      FAIR      34  25  69 CALM      29.70S
WINNER         FAIR      39  14  36 S21       29.79F
$$

SDZ004>011-016>023-039-040-030200-
NORTHEAST SOUTH DAKOTA

CITY           SKY/WX    TMP DP  RH WIND       PRES   REMARKS
ABERDEEN       MOCLDY    29  18  63 S23       29.87F WCI  15
WATERTOWN      CLOUDY    26  18  71 S20G25    29.92F WCI  12
SISSETON         N/A     28  19  69 S15       29.95F WCI  16
$$

SDZ017-020-022-023-036>040-048>070-030200-
SOUTHEAST SOUTH DAKOTA

CITY           SKY/WX    TMP DP  RH WIND       PRES   REMARKS
SIOUX FALLS    CLOUDY    30  20  66 SE18G30   30.00F WCI  18
HURON          CLOUDY    31  19  61 S23G30    29.89F WCI  18
CHAMBERLAIN    CLOUDY    38  15  39 S17G29    29.83F
MITCHELL       CLOUDY    35  19  52 MISG      29.93F
YANKTON        CLOUDY    37  18  44 SE16      29.99F
$$

ABBREVIATIONS USED IN REMARKS
   TC - TEMPERATURE IN CELSIUS
  WCI - WIND CHILL INDEX
   HX - HEAT INDEX
  VSB - VISIBILITY




USA.gov is the U.S. government's official web portal to all federal, state and local government web resources and services.